• MPC Preparation (Info)

  • MPEC 2017-F69 : 2017 FV2

    The following Minor Planet Electronic Circular may be linked-to from your own Web pages, but must not otherwise be redistributed electronically.

    A form allowing access to any MPEC is at the bottom of this page.


    Read MPEC 2017-F68 Read MPEC 2017-F70


    M.P.E.C. 2017-F69                                Issued 2017 Mar. 22, 15:14 UT
    
         The Minor Planet Electronic Circulars contain information on unusual
             minor planets and routine data on comets.  They are published
        on behalf of Division F of the International Astronomical Union by the
              Minor Planet Center, Smithsonian Astrophysical Observatory,
                              Cambridge, MA 02138, U.S.A.
    
                 Prepared using the Tamkin Foundation Computer Network
    
                                  MPC@CFA.HARVARD.EDU
                URL https://www.minorplanetcenter.net/    ISSN 1523-6714
    
                                       2017 FV2
    
    Observations:
         K17F02V  C2017 03 18.29774 11 46 58.659-00 22 55.31         19.4 wLEF069F51
         K17F02V* C2017 03 19.32658 11 41 21.944-00 44 07.06         19.8 wLEF069F51
         K17F02V  C2017 03 19.33862 11 41 18.139-00 44 20.64         20.0 wLEF069F51
         K17F02V  C2017 03 19.35060 11 41 14.349-00 44 34.12         20.0 wLEF069F51
         K17F02V KC2017 03 19.90935111 38 34.59 -00 53 45.2          19.5 GUEF069K91
         K17F02V KC2017 03 19.91335011 38 33.43 -00 53 49.2          19.5 GUEF069K91
         K17F02V KC2017 03 19.91732611 38 32.27 -00 53 53.3          19.4 GUEF069K91
         K17F02V  C2017 03 20.32235 11 36 45.46 -01 01 30.0          19.3 RoEF069926
         K17F02V  C2017 03 20.32853 11 36 43.67 -01 01 36.0          19.6 RoEF069926
         K17F02V  C2017 03 20.33465 11 36 42.00 -01 01 41.6          19.6 RoEF069926
         K17F02V HC2017 03 21.30429 11 32 54.96 -01 15 58.7          19.9 RoEF069691
         K17F02V HC2017 03 21.31474 11 32 52.54 -01 16 06.6          20.2 RoEF069691
         K17F02V HC2017 03 21.32520 11 32 50.08 -01 16 15.4          20.3 RoEF069691
    
    Observer details:
    691 Steward Observatory, Kitt Peak.  Observer M. T. Read.  0.9-m f/3 reflector
        + CCD.
    926 Tenagra II Observatory.  Observers M. Schwartz, P. R. Holvorcem.  Measurer
        M. Schwartz.  0.81-m f/7 Ritchey-Chretien + CCD.
    F51 Pan-STARRS 1, Haleakala.  Observers B. Gibson, T. Goggia, S. Kahale,
        T. Lowe, A. Schultz, M. Willman.  Measurers K. Chambers, S. Chastel,
        L. Denneau, H. Flewelling, M. Huber, E. Lilly, E. Magnier, R. Wainscoat,
        C. Waters, R. Weryk.  1.8-m Ritchey-Chretien + CCD.
    K91 Sutherland-LCOGT A.  Observers T. Lister, S. Greenstreet, E. Gomez.
        Measurer T. Lister.  1.0-m f/8 Ritchey-Chretien + CCD.
    
    Orbital elements:
    2017 FV2                                                 Earth MOID = 0.0245 AU
    Epoch 2017 Feb. 16.0 TT = JDT 2457800.5                 MPC
    M   8.96989              (2000.0)            P               Q
    n   0.33866303     Peri.   75.51889     +0.30797126     -0.95133030
    a   2.0384068      Node   356.48447     +0.78776593     +0.26155831
    e   0.7443633      Incl.   10.47821     +0.53345903     +0.16296598
    P   2.91           H   23.2           G   0.15           U   7
    Residuals in seconds of arc
    170318 F51  0.4-  0.3+    170319 K91  0.3-  0.1-    170321 691  0.5-  0.1+
    170319 F51  0.3-  0.3+    170319 K91  0.4-  0.1-    170321 691  0.0   0.7+
    170319 F51  0.2-  0.3+    170320 926  0.2+  0.0     170321 691  0.1-  0.5+
    170319 F51  0.1-  0.3+    170320 926  1.4-  0.1-
    170319 K91  0.3-  0.2-    170320 926  1.5-  0.1+
    
    Ephemeris:
    2017 FV2                 a,e,i = 2.04, 0.74, 10                  q = 0.5211
    Date    TT    R. A. (2000) Decl.     Delta      r     Elong.  Phase     V
    2017 02 20    22 01 24.7 +06 24 03   0.2144  0.7872    17.7   157.6    29.5
    ...
    2017 03 07    17 46 30.0 +14 30 28   0.04239 0.9877    82.5    95.0    19.7
    ...
    2017 03 15    12 14 37.9 +01 23 09   0.1002  1.0935   171.1     8.1    19.0
    ...
    2017 03 21    11 34 03.1 -01 11 16   0.1762  1.1712   173.1     5.8    20.2
    2017 03 22    11 30 31.5 -01 24 34   0.1894  1.1840   171.4     7.2    20.5
    2017 03 23    11 27 28.6 -01 36 04   0.2027  1.1967   169.7     8.5    20.7
    ...
    2017 03 29    11 15 47.5 -02 21 36   0.2853  1.2720   161.4    14.5    21.8
    ...
    2017 04 06    11 09 36.3 -02 53 53   0.4019  1.3696   152.4    19.8    22.9
    ...
    2017 04 21    11 10 05.4 -03 35 19   0.6401  1.5433   138.4    25.6    24.3
    
    A. U. Tomatic                (C) Copyright 2017 MPC           M.P.E.C. 2017-F69
    

    Read MPEC 2017-F68 Read MPEC 2017-F70


    MPEC number:

    Enter an MPEC number in one of the following forms:

    • 1997-B01 (the full form)
    • J97B01 (the packed version of the full form)
    • B01 (the abbreviated form)